Muskegon, MI

8:56 AM EDT on April 22, 2018 (GMT -0400)
Muskegon County

Weather History for KMKG - January, 2013

Change the Weather History Date:

Thursday, January 17, 2013

  Actual Average Record
Temperature  
Mean Temperature 28 °F 25 °F  
Max Temperature 35 °F 31 °F 52 °F (1990)
Min Temperature 21 °F 20 °F -9 °F (1982)
Degree Days  
Heating Degree Days 37 40  
Month to date heating degree days 556 667  
Since 1 July heating degree days 2755 3113  
Cooling Degree Days 0 0  
Month to date cooling degree days 0 0  
Year to date cooling degree days 0 0  
Moisture  
Dew Point 14 °F    
Average Humidity 57    
Maximum Humidity 63    
Minimum Humidity 50    
Precipitation  
Precipitation T in 0.06 in 1.30 in (1897)
Month to date precipitation 1.24 1.18  
Year to date precipitation 1.24 1.18  
Snow  
Snow T in 0.90 in 14.80 in (2009)
Month to date snowfall 0.8 15.3  
Since 1 July snowfall 9.0 50.4  
Snow Depth 0.00 in    
Sea Level Pressure  
Sea Level Pressure 30.21 in    
Wind  
Wind Speed 13 mph (NW)    
Max Wind Speed 22 mph    
Max Gust Speed 32 mph    
Visibility 10 miles    
Events Snow    
T = Trace of Precipitation, MM = Missing Value Source: NWS Daily Summary

Daily Weather History Graph

Daily Weather History Graph

Search for Another Location

Airport or City:

Astronomy

Jan. 17, 2013 Rise Set
Actual Time 8:12 AM EST 5:38 PM EST
Civil Twilight 7:41 AM EST 6:09 PM EST
Nautical Twilight 7:06 AM EST 6:44 PM EST
Astronomical Twilight 6:32 AM EST 7:18 PM EST
Moon 11:07 AM EST (1/17) No Moon Set
Length of Visible Light 10h 28m
Length of Day
9h 25m
Waxing Crescent, 37% of the Moon is Illuminated
Jan 17
Waxing Crescent
Jan 18
First Quarter
Jan 26
Full
Feb 3
Last Quarter
Feb 10
New

Hourly Weather History & Observations

Time (EST) Temp. Windchill Dew Point Humidity Pressure Visibility Wind Dir Wind Speed Gust Speed Precip Events Conditions
12:15 AM 35.6 °F 26.2 °F 23.0 °F 60% 29.98 in 10.0 mi NW 15.0 mph - N/A   Overcast
12:27 AM 35.6 °F 28.0 °F 21.2 °F 56% 29.98 in 10.0 mi NW 10.4 mph - N/A   Overcast
12:52 AM 35.6 °F 26.2 °F 21.2 °F 56% 29.99 in 10.0 mi NW 15.0 mph 25.3 mph N/A   Overcast
12:55 AM 35.1 °F 25.2 °F 21.9 °F 59% 30.01 in 10.0 mi NW 16.1 mph 25.3 mph N/A   Overcast
1:55 AM 33.1 °F 26.9 °F 19.9 °F 59% 30.03 in 10.0 mi NW 6.9 mph - N/A   Clear
2:55 AM 33.1 °F 24.4 °F 21.9 °F 64% 30.08 in 10.0 mi North 11.5 mph - N/A   Mostly Cloudy
3:55 AM 30.9 °F 21.7 °F 19.0 °F 61% 30.11 in 10.0 mi North 11.5 mph - N/A   Overcast
4:55 AM 30.9 °F 22.8 °F 17.1 °F 57% 30.15 in 10.0 mi North 9.2 mph - N/A   Overcast
5:55 AM 30.0 °F 24.1 °F 17.1 °F 59% 30.16 in 10.0 mi NNW 5.8 mph - N/A   Overcast
6:55 AM 30.0 °F 21.7 °F 17.1 °F 59% 30.17 in 10.0 mi WNW 9.2 mph - N/A   Overcast
7:55 AM 30.0 °F 20.0 °F 15.1 °F 54% 30.20 in 10.0 mi WNW 12.7 mph - N/A   Overcast
8:55 AM 28.0 °F 18.1 °F 12.9 °F 53% 30.23 in 10.0 mi WNW 11.5 mph - N/A   Mostly Cloudy
9:55 AM 28.9 °F 18.6 °F 15.1 °F 56% 30.25 in 10.0 mi WNW 12.7 mph - N/A   Mostly Cloudy
10:55 AM 27.0 °F 16.1 °F 14.0 °F 58% 30.27 in 9.0 mi WNW 12.7 mph 21.9 mph 0.00 in Snow Light Snow
11:55 AM 27.0 °F 14.7 °F 14.0 °F 58% 30.27 in 9.0 mi WNW 16.1 mph 21.9 mph 0.00 in Snow Light Snow
12:11 PM 26.6 °F 16.2 °F 14.0 °F 59% 30.24 in 9.0 mi WNW 11.5 mph - 0.00 in Snow Light Snow
12:25 PM 26.6 °F 14.7 °F 12.2 °F 55% 30.24 in 9.0 mi WNW 15.0 mph 21.9 mph 0.00 in Snow Light Snow
12:55 PM 26.1 °F 13.1 °F 12.9 °F 58% 30.26 in 9.0 mi WNW 17.3 mph 25.3 mph 0.00 in Snow Light Snow
1:14 PM 26.6 °F 14.3 °F 12.2 °F 55% 30.24 in 9.0 mi NW 16.1 mph 24.2 mph 0.00 in Snow Light Snow
1:55 PM 25.0 °F 13.1 °F 10.9 °F 55% 30.27 in 9.0 mi WNW 13.8 mph 27.6 mph 0.00 in Snow Light Snow
2:55 PM 23.0 °F 9.6 °F 8.1 °F 53% 30.28 in 10.0 mi WNW 16.1 mph 27.6 mph 0.00 in   Overcast
3:55 PM 24.1 °F 13.1 °F 9.0 °F 53% 30.28 in 9.0 mi NW 11.5 mph 19.6 mph 0.00 in   Scattered Clouds
4:55 PM 23.0 °F 11.1 °F 7.0 °F 50% 30.30 in 10.0 mi NW 12.7 mph - N/A   Mostly Cloudy
5:55 PM 24.1 °F 12.5 °F 9.0 °F 53% 30.31 in 9.0 mi NW 12.7 mph 24.2 mph 0.00 in Snow Light Snow
6:55 PM 24.1 °F 10.1 °F 8.1 °F 51% 30.32 in 10.0 mi WNW 18.4 mph 32.2 mph 0.00 in   Overcast
7:55 PM 24.1 °F 11.5 °F 8.1 °F 51% 30.33 in 10.0 mi NW 15.0 mph 23.0 mph N/A   Overcast
8:55 PM 24.1 °F 11.0 °F 8.1 °F 51% 30.36 in 9.0 mi NW 16.1 mph 27.6 mph 0.00 in Snow Light Snow
9:55 PM 23.0 °F 8.7 °F 7.0 °F 50% 30.36 in 9.0 mi NW 18.4 mph 27.6 mph 0.00 in Snow Light Snow
10:55 PM 21.9 °F 10.4 °F 8.1 °F 55% 30.36 in 9.0 mi NNW 11.5 mph 20.7 mph 0.00 in Snow Light Snow
11:55 PM 21.9 °F 11.0 °F 7.0 °F 53% 30.38 in 10.0 mi NW 10.4 mph - 0.00 in   Overcast